www.pogodaiklimat.ru

Погода и климат >> Архив погоды >> Австралия >> Западная Австралия >> Перт Джандакот


ПОГОДА в Перт Джандакот

  • Прогноз погоды в Перт Джандакот
  • Монитор погоды в Перт Джандакот

АРХИВ ПОГОДЫ в Перт Джандакот

Время (UTC), дата Ветер
(напр.,м/с)
 
Видим.   Явления Облачность Т
(С)
Тd
(С)
f
(%)
Тe
(С)
Тes
(С)
Комфортность P
(гПа)
Po
(гПа)
Тmin
(С)
Tmax
(С)
R
(мм)
R24
(мм)
S
(см)
04 10.07 ЮЗ 3 н/о 10/10 1000 м
[]
+17.2 +10.8 66 +17 +17 1026.6 1022.9
06 10.07 ЮЗ 4 н/о н/о +17.4 +9.8 61 +17 +17 1025.1 1021.4
07 10.07 ЮЗ 4 н/о 10/10 1000 м
[]
+17.1 +10.7 66 +17 +17 1025.4 1021.7
09 10.07 З 4 н/о н/о +16.2 +10.5 69 +16 +16 1026.3 1022.6
10 10.07 ЮЗ 2 н/о 10/10 600 м
[]
+15.6 +11.2 75 +15 +15 1026.8 1023.1
12 10.07 ЮВ 3 н/о н/о +12.4 +11.9 97 +11 +11 1027.6 1023.9
13 10.07 штиль 0 н/о н/о +11.3 +11.3 100 +11 +11 1027.7 1024.0 +18.0
15 10.07 штиль 0 н/о н/о +9.9 +9.9 100 +9 +9 1028.1 1024.4
16 10.07 В 1 8000 м 10/10 1000 м
[]
+11.1 +11.1 100 +11 +11 1027.7 1024.0
18 10.07 штиль 0 н/о н/о +11.0 +11.0 100 +10 +10 1027.5 1023.8
19 10.07 В 2 8000 м 10/10 600 м
[]
+11.1 +11.1 100 +10 +10 1027.2 1023.5
21 10.07 штиль 0 н/о н/о +11.6 +11.6 100 +11 +11 1027.6 1023.9
22 10.07 В 1 6000 м морось {туман} 10/10 600 м
[]
+11.6 +11.6 100 +12 +12 1028.5 1024.7
00 11.07 штиль 0 н/о н/о +11.5 +11.5 100 +11 +11 1029.4 1025.6
01 11.07 В 1 н/о {туман} 5/5 1000 м
[]
+12.5 +12.5 100 +13 +15 1029.8 1026.0 +9.3
03 11.07 ЮЗ 1 н/о н/о +16.1 +12.3 78 +17 +17 1030.1 1026.3
04 11.07 Ю 3 н/о 10/10 1000 м
[]
+17.0 +12.1 73 +17 +17 1029.2 1025.4
06 11.07 Ю 3 н/о н/о +17.2 +10.3 64 +17 +17 1027.9 1024.2
07 11.07 ЮЗ 3 н/о 10/10 600 м
[]
+17.9 +10.5 62 +18 +18 1028.0 1024.3
09 11.07 Ю 3 н/о н/о +15.7 +10.2 70 +15 +15 1028.8 1025.0
10 11.07 Ю 3 н/о н/о +14.1 +10.5 79 +13 +13 1029.4 1025.6
12 11.07 штиль 0 н/о н/о +10.2 +9.3 94 +9 +9 1030.1 1026.3
13 11.07 Ю 1 н/о н/о +9.1 +8.8 98 +9 +9 1030.5 1026.7 +18.6
15 11.07 штиль 0 н/о н/о +8.1 +8.1 100 +7 +7 1030.6 1026.8
16 11.07 штиль 0 1500 м н/о +6.7 +6.7 100 +6 +6 1030.5 1026.7
18 11.07 штиль 0 н/о н/о +5.5 +5.5 100 +4 +4 1030.6 1026.8
19 11.07 Ю 1 300 м 1/1 100 м
[]
+4.9 +4.9 100 +5 +5 1030.7 1026.9
21 11.07 штиль 0 н/о н/о +4.9 +4.9 100 +4 +4 1030.8 1027.0
22 11.07 штиль 0 н/о 3/3 100 м
[]
+4.5 +4.5 100 +3 +3 1031.2 1027.4
00 12.07 штиль 0 н/о н/о +5.4 +5.4 100 +4 +4 1032.1 1028.3
01 12.07 В 3 н/о н/о +11.0 +10.5 97 +9 +9 1032.3 1028.5 +4.2
03 12.07 В 5 н/о н/о +14.5 +10.1 75 +13 +13 1032.7 1028.9
04 12.07 В 4 н/о н/о +15.4 +9.7 69 +14 +14 1032.2 1028.4
06 12.07 Ю 4 н/о н/о +17.2 +10.1 63 +17 +17 1030.7 1026.9
07 12.07 ЮВ 5 н/о н/о +17.9 +10.8 63 +17 +17 1030.4 1026.6
09 12.07 В 7 н/о н/о +15.4 +9.5 68 +14 +14 1031.2 1027.4
10 12.07 В 4 н/о 1/1 600 м
[]
+12.9 +9.0 77 +11 +11 1032.0 1028.2
12 12.07 В 3 н/о н/о +12.8 +9.6 81 +12 +12 1033.1 1029.3
13 12.07 В 3 н/о н/о +10.8 +8.4 85 +9 +9 1033.0 1029.2 +18.2
15 12.07 Ю 3 н/о н/о +7.4 +6.8 96 +5 +5 1033.1 1029.3
16 12.07 ЮВ 3 н/о н/о +8.4 +7.8 96 +6 +6 1032.6 1028.8
18 12.07 ЮВ 1 н/о н/о +7.0 +6.6 97 +6 +6 1032.7 1028.9
19 12.07 штиль 0 н/о н/о +7.8 +7.8 100 +7 +7 1032.9 1029.1
21 12.07 ЮВ 4 н/о н/о +7.8 +7.8 100 +4 +4 1033.1 1029.3
22 12.07 В 6 н/о н/о +10.5 +9.4 93 +7 +7 1033.4 1029.6
00 13.07 В 3 н/о н/о +9.2 +8.7 97 +7 +7 1034.6 1030.8
01 13.07 В 3 н/о н/о +12.0 +10.4 90 +11 +11 1034.8 1031.0 +5.3
03 13.07 В 5 н/о н/о +16.3 +9.0 62 +15 +15 1034.7 1030.9
04 13.07 В 5 н/о н/о +17.1 +8.5 57 +16 +16 1034.0 1030.2
06 13.07 В 5 н/о н/о +18.3 +9.1 55 +18 +18 1032.1 1028.3
07 13.07 В 5 н/о н/о +18.5 +8.7 53 +18 +18 1031.8 1028.0
09 13.07 В 5 н/о н/о +16.2 +8.9 62 +15 +15 1032.3 1028.5
10 13.07 В 4 н/о н/о +13.9 +8.5 70 +12 +12 1032.9 1029.1
12 13.07 В 4 н/о н/о +11.8 +7.7 76 +10 +10 1033.2 1029.4
13 13.07 В 6 н/о н/о +12.6 +7.7 72 +10 +10 1033.8 1030.0 +18.9
15 13.07 ЮВ 5 н/о н/о +10.2 +6.7 79 +7 +7 1034.3 1030.5
18 13.07 В 4 н/о н/о +10.7 +6.3 74 +8 +8 1032.8 1029.0
19 13.07 В 3 н/о н/о +9.8 +5.6 75 +8 +8 1032.8 1029.0
21 13.07 В 3 н/о н/о +9.2 +5.6 78 +7 +7 1032.9 1029.1
22 13.07 В 4 н/о н/о +8.2 +5.3 82 +5 +5 1033.5 1029.7
00 14.07 В 3 н/о н/о +8.6 +5.7 82 +6 +6 1034.4 1030.6
01 14.07 В 4 н/о н/о +11.6 +6.1 69 +10 +10 1033.7 1029.9 +6.8
03 14.07 СВ 6 н/о н/о +15.2 +6.5 56 +14 +14 1033.5 1029.7
04 14.07 В 5 н/о н/о +17.2 +6.7 50 +17 +17 1032.9 1029.1
06 14.07 СВ 6 н/о н/о +18.1 +6.3 46 +18 +18 1030.8 1027.0
07 14.07 СВ 5 н/о н/о +18.7 +5.2 41 +19 +19 1030.5 1026.7
09 14.07 В 4 н/о н/о +16.5 +6.9 53 +16 +16 1030.8 1027.0
10 14.07 В 3 н/о н/о +13.0 +7.0 67 +12 +12 1031.6 1027.8
12 14.07 В 4 н/о н/о +9.6 +6.5 81 +7 +7 1031.4 1027.6
13 14.07 В 5 н/о н/о +11.0 +7.1 77 +8 +8 1030.9 1027.1 +19.0
15 14.07 ЮВ 1 н/о н/о +8.5 +6.0 84 +8 +8 1031.2 1027.4
16 14.07 В 3 н/о н/о +10.6 +6.2 74 +9 +9 1030.9 1027.1
18 14.07 СВ 3 н/о н/о +9.5 +4.9 73 +7 +7 1030.5 1026.7
19 14.07 СВ 1 н/о н/о +7.3 +4.6 83 +7 +7 1030.8 1027.0
21 14.07 В 4 н/о н/о +8.8 +5.2 78 +6 +6 1030.9 1027.1
22 14.07 СВ 4 н/о н/о +9.7 +5.1 73 +7 +7 1031.4 1027.6
00 15.07 СВ 5 н/о н/о +11.0 +5.5 69 +9 +9 1031.5 1027.7
01 15.07 СВ 5 н/о н/о +13.4 +6.5 63 +12 +12 1031.9 1028.1 +6.4
03 15.07 СВ 8 н/о н/о +17.3 +7.1 51 +16 +16 1031.2 1027.4
04 15.07 СВ 6 н/о н/о +18.6 +6.4 45 +18 +18 1030.3 1026.5
06 15.07 СВ 5 н/о н/о +19.8 +6.9 43 +21 +21 комфорт 1028.6 1024.8
07 15.07 СВ 5 н/о н/о +19.7 +7.1 44 +20 +20 1028.1 1024.4
09 15.07 В 3 н/о н/о +17.9 +7.3 50 +18 +18 1027.9 1024.2
10 15.07 СВ 2 н/о н/о +13.3 +7.7 69 +13 +13 1028.5 1024.7
12 15.07 В 2 н/о н/о +9.2 +6.8 85 +7 +7 1029.8 1026.0
13 15.07 В 2 н/о н/о +9.1 +6.9 86 +7 +7 1029.8 1026.0 +20.2
15 15.07 В 3 н/о н/о +7.2 +6.0 92 +4 +4 1029.9 1026.1
16 15.07 В 3 н/о н/о +5.6 +5.0 96 +2 +2 1029.0 1025.2
18 15.07 штиль 0 н/о н/о +5.0 +4.6 97 +4 +4 1028.8 1025.0
19 15.07 штиль 0 н/о н/о +4.1 +3.7 97 +3 +3 1028.6 1024.8
21 15.07 штиль 0 н/о н/о +3.4 +3.0 97 +2 +2 1028.4 1024.6
22 15.07 штиль 0 2000 м н/о +3.0 +2.9 99 +2 +2 1028.6 1024.8
00 16.07 СВ 2 н/о н/о +4.4 +4.1 98 +2 +2 1029.6 1025.8
01 16.07 штиль 0 н/о н/о +11.0 +8.9 87 +10 +10 1030.2 1026.4 +1.6
03 16.07 С 5 н/о н/о +17.4 +6.6 49 +17 +17 1029.7 1025.9
04 16.07 С 4 н/о н/о +19.0 +7.8 48 +19 +19 1028.8 1025.0
06 16.07 СЗ 4 н/о н/о +20.4 +5.2 37 +21 +21 комфорт 1027.2 1023.5
07 16.07 СЗ 4 н/о н/о +20.1 +4.6 36 +21 +21 комфорт 1026.9 1023.2
09 16.07 ЮЗ 3 н/о н/о +17.5 +9.9 61 +17 +17 1026.9 1023.2
10 16.07 ЮЗ 2 н/о н/о +13.4 +9.6 78 +13 +13 1027.1 1023.4
12 16.07 штиль 0 н/о н/о +8.7 +7.6 93 +8 +8 1027.5 1023.8
13 16.07 штиль 0 н/о н/о +7.4 +6.7 95 +6 +6 1027.5 1023.8 +20.8
15 16.07 штиль 0 н/о н/о +6.8 +5.7 93 +6 +6 1027.1 1023.4
16 16.07 штиль 0 н/о н/о +6.0 +5.3 95 +5 +5 1026.4 1022.7
18 16.07 штиль 0 н/о н/о +5.5 +4.8 95 +4 +4 1025.3 1021.6
19 16.07 СВ 1 500 м н/о +4.3 +4.0 98 +4 +4 1024.7 1021.0
21 16.07 штиль 0 н/о н/о +3.1 +3.0 99 +2 +2 1024.0 1020.3
22 16.07 штиль 0 н/о н/о +2.4 +2.3 99 +1 +1 1023.9 1020.2
00 17.07 штиль 0 н/о н/о +3.7 +3.6 99 +2 +2 1024.2 1020.5
01 17.07 СВ 2 н/о н/о +10.5 +7.4 81 +10 +10 1024.2 1020.5 +1.5
03 17.07 С 4 н/о н/о +18.3 +6.5 46 +18 +18 1023.7 1020.0
04 17.07 С 5 н/о н/о +20.4 +7.4 43 +21 +21 комфорт 1022.5 1018.8

 

Местоположение метеостанции Перт Джандакот (Западная Австралия, Австралия): широта -32.10 долгота 115.88 высота над уровнем моря 31 м.

В архиве по умолчанию представлена погода в Перт Джандакот за последнюю неделю. Архивные данные за месяц целиком и за предыдущие месяцы, начиная с января 2011 года, Вы можете получить, выбрав интересующий диапазон дат из раскрывающегося списка и нажав кнопку "Ввод!".


*Определитесь, кто Вы:
робот инопланетянин человек

Внимание! Время в таблицах - всемирное. Для получения местного времени необходимо прибавить поправку, которая равна 8 ч.

Смотрите также архив погоды в соседних городах и на ближайших метеорологических станциях:

Погода в Суонборне (Западная Австралия, Австралия) (20 км)
Погода в Перт Монт-Лоули (Западная Австралия, Австралия) (20 км)
Погода в Перте (Западная Австралия, Австралия) (20 км)
Погода в Гусберри Хилл (Западная Австралия, Австралия) (23 км)
Погода на Острове Гарден (Западная Австралия, Австралия) (24 км)
Погода в Обсерватории Перт (Западная Австралия, Австралия) (25 км)
Погода на Острове Роттнест (Западная Австралия, Австралия) (37 км)
Погода в Ошен Риф (Западная Австралия, Австралия) (40 км)
Погода в Мандуре (Западная Австралия, Австралия) (49 км)
Погода в Буллсбрук Пирс (Западная Австралия, Австралия) (50 км)

Пояснения к столбцам:

Ветер - указаны скорость ветра в м/с - средняя за 10 мин, порывы в срок и между сроками (в фигурных скобках) и направление, откуда дует ветер: С - северный, СВ - северо-восточный, В - восточный, ЮВ - юго-восточный, Ю - южный, ЮЗ - юго-западный, З - западный, СЗ - северо-западный.
Видимость - горизонтальная дальность видимости в метрах или километрах. При видимости от 1 до 10 км при отсутствии осадков обычно наблюдается дымка, при ухудшении видимости до 1 км и менее - туман. В сухую погоду видимость может ухудшаться дымом, пылью или мглою.
Явления - указаны атмосферные явления, наблюдавшиеся в срок или в последний час перед сроком; фигурными скобками обозначены явления, наблюдавшиеся между сроками (за 1-3 часа до срока); квадратными скобками обозначены град или гололедные отложения с указанием их диаметра в мм.
Облачность - указаны через наклонную черту общая и нижняя облачность в баллах и высота нижней границы облаков в метрах; квадратными скобками обозначены формы облаков: Ci - перистые, Cs - перисто-слоистые, Cc - перисто-кучевые, Ac - высококучевые, As - высокослоистые, Sc - слоисто-кучевые, Ns - слоисто-дождевые, Cu - кучевые, Cb - кучево-дождевые. Подробнее классификацию облаков см. в Атласе облаков (PDF).
T - Температура воздуха - температура, измеренная на высоте 2 м над землей.
Td - Температура точки росы - температура, при понижении до которой содержащийся в воздухе водяной пар достигнет насыщения.
f - Относительная влажность воздуха - влажноcть воздуха, измеренная на высоте 2 м над землей.
Te - Эффективная температура - температура, которую ощущает одетый по сезону человек в тени. Характеристика душности погоды. При расчете учитывается влияние влажности воздуха и скорости ветра на теплоощущения человека.
Tes - Эффективная температура на солнце - температура, которую ощущает человек, с поправкой на солнечный нагрев. Характеристика знойности погоды. Зависит от высоты солнца над горизонтом, облачности и скорости ветра. Ночью, в пасмурную погоду, а также при ветре 12 м/с и более поправка равна нулю.
P - Атмосферное давление - приведенное к уровню моря атмосферное давление.
Po - Атмосферное давление - измеренное на уровне метеостанции атмосферное давление.
Tmin - Минимальная температура - минимум температуры воздуха на высоте 2 м над землей.
Tmax - Максимальная температура - максимум температуры воздуха на высоте 2 м над землей.
R - Количество осадков - Количество выпавших осадков за период времени, мм. При наведении курсора мыши на число - период времени, за который выпало указанное количество осадков.
R24 - Количество осадков - Количество выпавших осадков за 24 часа, мм.
S - Снежный покров - Высота снежного покрова, см. При наведении курсора мыши на число - состояние снежного покрова и степень покрытия местности в баллах.